loading
DOY 205 | 2024-07-23T03:17:36Z
Showing default

INTELSAT 1-F1, 1317

Orbit data source: Space-Track

INTELSAT 1-F1, 1317 is a payload satellite owned by INTELSAT (US) in GEO that was launched on Tue, 06 Apr 1965 UTC via a Thor Delta D launch vehicle from the Air Force Eastern Test Range (AFETR). Payloads include a variety of satellites, spacecraft, and rockets equipped with specific instruments for various scientific and technological missions. These include communications satellites like Starlink; space stations such as the ISS; scientific satellites like the Hubble; Earth observation satellites from companies like Planet Labs, Umbra, and HawkEye 360; GPS; miniature CubeSats for education and research; and military/defense satellites.

Loading next visibility...
Loading greatness...
INTELSAT 1-F1 details
NORAD ID1317
COSPAR ID
1965-028A
Orbit
GEO
Last TLE update23 hours ago
Origin
Flag of USINTELSAT (US / ITSO)
ManufacturerHughes
BusHS-303A
MotorStarfinder
Mass68 kg wet, 30 kg dry
Launch date (UTC)
1965-04-06 (59 years ago)
Launch vehicle
Thor Delta D
Launch site
Air Force Eastern Test Range (AFETR)
Object type
Payload
Rocket body
Debris
Radar Cross SectionMedium (>0.1 m² and <1 m²)
Predictive object data (real-time)
Latitude1.89477°
Longitude-140.17436°
Altitude35,743.136 km
Speed3.077 km/s
Apparent Right ascension15h 13m 21s
Apparent Declination-4° 05' 54"
Sunlit
Object is in daylight
Predictive observer data (real-time)
Local Sidereal Time16:22:34
Azimuth204.018° SW
Elevation43.199°
Doppler factor1
Orbital elements
Apogee35,790.616 km
Perigee35,734.822 km
Semi-major axis42,140.856 km
Eccentricity0.000662
Inclination5.4552°
RAAN70.4453°
Arg. of periapsis109.6433°
True anomaly69.58578°
Mean anomaly69.5147°
Mean motion0.25089 °/min
BSTARUnknown
Period1434.88 mins
Definitive object data (Epoch: 2024-07-22T04:40:16.142Z)
Latitude0.07384°
Longitude-120.81185°
Altitude35,751.563 km
Speed3.076 km/s
True Right ascension16h 38m 44s
True Declination0° 04' 26"
Sunlit
Object was in daylight at TLE epoch
TLE from 23 hours ago
0 INTELSAT 1-F1
1 01317U 65028A   24204.19463128 -.00000003  00000-0  00000-0 0  9993
2 01317   5.4552  70.4453 0006620 109.6433  69.5147  1.00360789120209
Epoch: 2024-07-22T04:40Z
No data available
Other satellites on launch #28 in the year 1965 (1965-04-06 UTC)

INTELSAT 1-F1 Visibility forecast

Observer location: 39.9160978°, -105.1181434

INTELSAT 1-F1 is not visible in the next 10 days
Span
Click to sort rows by Start time (UTC) header in descending order
Start Az.
Max El. time (UTC)
Max El. Az.
Max El.
End time (UTC)
End Az.